Nur fliegen ist schöner ....

Willkommen beim Flugservice Bautzen GmbH

Wir sind eine nach europäischen Richtlinien zugelassene Flugschule und lizenziertes Luftfahrtunternehmen. Bei uns können sie nicht nur Rundflüge über die Oberlausitz oder Sachsen buchen, sondern in unserer Flugschule selber das Fliegen erlernen. Erfahrene Fluglehrer stehen Ihnen dabei zur Seite.

Wir bieten Ihnen außerdem spezielle Flüge zur Vermessung oder Fotoflüge für Luftbildaufnahmen an. In Zusammenarbeit mit dem Fallschirmsportclub Dresden und dem Cottbuser Fallschirmsportclub setzen wir am Flugplatz Bautzen und Neuhausen Fallschirmspringer ab.
Schauen Sie sich in Ruhe bei uns um und wenn Sie Fragen haben oder weitere Informationen benötigen, scheuen Sie sich nicht Kontakt mit uns aufzunehmen.

Gutscheine für Rundflüge und Tandemsprünge können Sie ganz leicht auch online in unserem Shop erwerben.

Terminkalender

Letzter Monat September 2020 Nächster Monat
Mo Di Mi Do Fr Sa So
week 36 1 2 3 4 5 6
week 37 7 8 9 10 11 12 13
week 38 14 15 16 17 18 19 20
week 39 21 22 23 24 25 26 27
week 40 28 29 30

Flugwetterinfo

[Quelle: ADDS]
METAR
EDDC 300550Z 25005KT CAVOK 08/07 Q1017 NOSIG =
EDDC 300500Z 3006/0106 VRB03KT CAVOK TEMPO 0103/0106 3000 BCFG
TAF
EDDC 300500Z 3006/0106 VRB03KT CAVOK TEMPO 0103/0106 3000 BCFG =
SR / SS: 05:01 / 16:41 UTC (EDAB Flugplatz Bautzen 2020-09-30)

Öffnungszeiten

des Flugplatzes Bautzen erfahren Sie hier:

flugplatz bautzen logo
Flugservice Bautzen GmbH, Kornmarkt 34, 02625 Bautzen  Telefon: +49 (3591) 211105, Telefax: +49 (3591) 274512, E-Mail:  flugservice(at)fsbautzen.de